Location: Brno
(49.2000°N, 16.6330°E)
Time: 13:13:02
(UTC+01:00)

Cosmos 1603 - Visible Passes

Search period start: 04 December 2016 00:00
Search period end: 14 December 2016 00:00
Orbit: 832 x 858 km, 71.0° (Epoch: 03 December)

Date Brightness Start Highest point End Pass type
(mag) Time Alt. Az. Time Alt. Az. Time Alt. Az.
04 Dec 4.2 05:24:43 10° S 05:30:19 61° ESE 05:35:54 10° NE visible
05 Dec 4.3 05:10:50 10° S 05:16:24 59° ESE 05:21:58 10° NE visible
05 Dec 4.5 06:55:55 10° WSW 07:00:54 30° NW 07:05:52 10° NNE visible
06 Dec 4.3 04:56:56 10° S 05:02:29 57° ESE 05:08:02 10° NE visible
06 Dec 4.4 06:41:57 10° WSW 06:46:58 31° NW 06:51:58 10° NNE visible
07 Dec 4.3 04:43:02 10° S 04:48:35 56° ESE 04:54:07 10° NE visible
07 Dec 4.4 06:27:59 10° WSW 06:33:01 32° NW 06:38:04 10° NNE visible
08 Dec 4.3 04:30:41 19° S 04:34:40 54° ESE 04:40:11 10° NE visible
08 Dec 4.4 06:14:01 10° WSW 06:19:05 32° NW 06:24:08 10° NNE visible
09 Dec 4.3 04:19:19 42° SSE 04:20:46 53° ESE 04:26:15 10° NE visible
09 Dec 4.4 06:01:20 16° WSW 06:05:09 33° NW 06:10:15 10° NNE visible
10 Dec 4.4 04:07:09 51° E 04:07:09 51° E 04:12:19 10° NE visible
10 Dec 4.3 05:49:07 26° W 05:51:13 34° NW 05:56:20 10° NNE visible
11 Dec 4.9 03:54:35 38° ENE 03:54:35 38° ENE 03:58:24 10° NE visible
11 Dec 4.3 05:36:33 33° WNW 05:37:17 34° NW 05:42:26 10° NNE visible
12 Dec 5.4 03:41:46 27° NE 03:41:46 27° NE 03:44:28 10° NE visible
12 Dec 4.3 05:23:42 35° NW 05:23:42 35° NW 05:28:31 10° NNE visible
13 Dec 5.9 03:28:47 20° NE 03:28:47 20° NE 03:30:32 10° NE visible
13 Dec 4.6 05:10:43 32° NNW 05:10:43 32° NNW 05:14:37 10° NNE visible
13 Dec 5.5 06:53:32 10° NW 06:55:21 11° NNW 06:57:11 10° N visible
